{"data":{"norad_id":63437,"intl_designator":"2025-069E","name":"STARLINK-33726","alt_names":[],"object_type":"PAYLOAD","status":"ACTIVE","operator":null,"country":"US","launch_date":"2025-04-04","launch_site_code":"AFWTR","launch_vehicle":null,"mission":null,"orbit_class":"UNKNOWN","rcs_meters":null,"size_class":null,"mass_kg":null,"dimensions":null,"purposes":["comms"],"wikipedia_slug":null,"has_3d_model":false,"image_url":null,"decayed_at":null,"tle_current":{"epoch":"2026-05-25T00:03:05.177664Z","epoch_age_seconds":71548,"freshness":"FRESH","line1":"1 63437U 25069E   26145.00214326  .00027496  00000+0  63850-3 0  9993","line2":"2 63437  53.1585 145.5213 0000955  76.3656 283.7456 15.42184733 65076","mean_motion":15.42184733,"eccentricity":9.55e-5,"inclination_deg":53.1585,"raan_deg":145.5213,"arg_perigee_deg":76.3656,"mean_anomaly_deg":283.7456,"bstar":0.0006385,"rev_number":6507,"period_min":93.374027714487,"perigee_km":439.01165857753,"apogee_km":440.3138583314,"semimajor_km":6817.7997584545,"source":"CELESTRAK","updated_at":"2026-05-25T13:38:19.998054Z"}}}